Regional Weather Roundup
Issued by NWS

Home | Current Version | Previous Version | Graphics & Text | Print | Product List | Glossary On
Versions: 1 2 3 4 5 6 7 8 9 10 11 12 13 14 15 16 17 18 19 20 21 22 23 24 25 26 27 28 29 30 31 32 33 34 35 36 37 38 39 40 41 42 43 44 45 46 47 48 49 50
000
ASUS43 KOAX 051310
RWRNE

WEATHER ROUNDUP FOR NEBRASKA
NATIONAL WEATHER SERVICE OMAHA NE
800 AM CDT SUN JUL 05 2015

NOTES: SATELLITE DATA IS BEING USED TO AUGMENT CLOUD COVER ABOVE
       12000 FEET.
       "FAIR" INDICATES FEW OR NO CLOUDS BELOW 12,000 FEET WITH NO
       SIGNIFICANT WEATHER AND/OR OBSTRUCTIONS TO VISIBILITY.

  * THESE STATIONS DO NOT REPORT WEATHER SUCH AS RAIN...SNOW OR FOG.

NEZ001>004-019>022-054>056-051400-
NEBRASKA PANHANDLE

CITY           SKY/WX    TMP DP  RH WIND       PRES   REMARKS
SCOTTSBLUFF    MOSUNNY   67  63  87 CALM      29.86F
ALLIANCE       MOSUNNY   68  64  87 SE9       29.85S
CHADRON        SUNNY     68  63  84 CALM      29.79S
KIMBALL          N/A    N/A N/A N/A MISG        N/A
SIDNEY         MOSUNNY   68  60  75 SW5       29.90S
$$

NEZ057>060-069>072-079>082-051400-
SOUTHWEST NEBRASKA

CITY           SKY/WX    TMP DP  RH WIND       PRES   REMARKS
NORTH PLATTE   SUNNY     74  63  68 S5        29.84F
IMPERIAL       SUNNY     72  62  71 S12       29.87R
LEXINGTON      SUNNY     74  67  81 S10       29.85R
MCCOOK         SUNNY     79  61  53 SW7       29.83S
OGALLALA       MOSUNNY   70  64  79 SW8       29.85F
$$

NEZ005>010-023>029-035>040-094-051400-
NORTH CENTRAL NEBRASKA

CITY           SKY/WX    TMP DP  RH WIND       PRES   REMARKS
VALENTINE      SUNNY     76  64  66 SW10      29.79S
AINSWORTH      SUNNY     76  65  68 S15G23    29.81S
BROKEN BOW     SUNNY     73  66  78 SE8       29.86R
O`NEILL        MOSUNNY   72  68  86 SE9       29.85R
ORD            MOSUNNY   70  65  84 E8        29.87R
THEDFORD       SUNNY     74  66  75 S10       29.84S
$$

NEZ041-046>049-061>064-073>077-083>087-051400-
SOUTH CENTRAL NEBRASKA

CITY           SKY/WX    TMP DP  RH WIND       PRES   REMARKS
GRAND ISLAND   PTSUNNY   72  66  81 S12       29.89R
AURORA         PTSUNNY   71  68  91 S10       29.89R
HASTINGS       MOSUNNY   71  66  84 S9G17     29.88R
HEBRON         SUNNY     72  66  81 S9        29.90R
HOLDREGE       SUNNY     71  65  82 SE12      29.86R
KEARNEY *      MOSUNNY   73  64  73 S14       29.86S
YORK           CLOUDY    72  66  83 S10G16    29.89F
$$

NEZ011>018-030>034-042>045-051400-
NORTHEAST NEBRASKA

CITY           SKY/WX    TMP DP  RH WIND       PRES   REMARKS
NORFOLK        TSTM      69  68  96 NE17      29.94S FOG
ALBION         CLOUDY    69  65  85 SE13      29.93F
BLAIR          CLOUDY    68  63  83 S10       29.93F
COLUMBUS *     CLOUDY    70  63  78 S7        29.86S
FREMONT        CLOUDY    70  64  82 SE9       29.92S
TEKAMAH        CLOUDY    68  65  90 SE7       29.92F
WAYNE          TSTM      68  66  93 CALM      29.98R
$$

NEZ050>053-065>068-078-088>093-051400-
SOUTHEAST NEBRASKA

CITY           SKY/WX    TMP DP  RH WIND       PRES   REMARKS
LINCOLN        CLOUDY    71  66  84 S7        29.92R
OMAHA EPPLEY   CLOUDY    71  64  78 S15       29.93S
BEATRICE       PTSUNNY   71  66  85 S8        29.92F
FALLS CITY     MOSUNNY   71  66  84 S7        29.96R
NEBRASKA CITY  PTSUNNY   69  65  87 S9        29.96R
PLATTSMOUTH    CLOUDY    68  64  86 SE10      29.94S HAZE
$$

NEZ044-045-051>053-067-051400-
OMAHA AREA

CITY           SKY/WX    TMP DP  RH WIND       PRES   REMARKS
OMAHA EPPLEY   CLOUDY    71  64  78 S15       29.93S
BLAIR          CLOUDY    68  63  83 S10       29.93F
FREMONT        CLOUDY    70  64  82 SE9       29.92S
MILLARD        CLOUDY    69  65  87 SE6       29.93F
OFFUTT AFB     CLOUDY    69  65  86 SE9       29.93R
PLATTSMOUTH    CLOUDY    68  64  86 SE10      29.94S HAZE
WAHOO          FAIR      68  65  90 SE7       29.92S FOG
$$



USA.gov is the U.S. government's official web portal to all federal, state and local government web resources and services.